カタログに戻る

METEOR 2-8 DEB

運用中PO
NORAD 36342·DEBRIS·🇷🇺 Russia

打ち上げ Mar 25, 1982 から Plesetsk Cosmodrome

Loading…

次のパス (今後24時間)

TLE

最新Source: Space-Track

元期: Sep 14, 2026, 02:41 UTC

1 36342U 82025AC  26257.11219060  .00001788  00000-0  84812-3 0  9997
2 36342  82.5308 186.2273 0028116 343.0884  16.9355 14.18892409679099

AllMySatでMETEOR 2-8 DEBをリアルタイム追跡

Download on the App Store